Vertical_Velocity
-3 1 -2 2 -1 0 -1 -2 1 0 0 -0 -2 -0 1 -1 0 -1 1 0 -1 -1 -1 -0 1 -1 1 -0 -2 -1 0 0 1 1 -2 -2 -1 -2 -1 -1 -3 -6 -3 -0 0 -4 -4
-2 -1 0 -1 1 -2 2 0 -2 -1 1 1 1 -1 -1 -1 -0 0 1 -0 -1 -1 -0 -1 0 -0 -0 1 -1 -1 0 0 -2 -2 -0 -1 -1 -1 1 -1 -3 1 1 -0 0 4 6
0 -1 -1 -0 -0 1 -2 3 -3 -1 -0 1 3 -1 -2 -1 -1 1 -0 1 -2 -0 -0 -0 0 -1 -3 -1 0 -1 -1 -0 -2 -1 -1 -0 0 0 -1 -2 -1 -0 0 1 4 0 0
-1 1 -0 -1 -1 0 -0 -1 2 -1 -2 -1 -2 3 -2 1 -2 -1 -0 0 1 -0 -0 -1 -1 -1 -1 -0 -1 -3 -1 0 -2 0 -0 -1 0 -0 -1 -1 -2 -1 -1 -0 -1 -7 -4
1 -0 2 -2 -2 -0 0 -1 1 0 -1 -2 -2 -0 1 1 -1 -0 -1 1 2 1 -0 -1 0 0 -2 -1 -2 -3 -1 -2 -2 -0 -2 -2 -1 -2 -3 -2 -2 -1 -1 0 -2 0 -0
-1 3 -1 2 -2 -1 -0 -2 -0 1 -0 -1 -2 -2 1 1 1 -1 -1 -2 1 1 0 2 -1 -1 -0 -1 0 -0 -1 -1 -1 -1 0 1 -2 -3 -1 -2 -1 -1 -2 -1 -1 2 1
-4 -0 3 -0 -0 -1 -1 1 -2 -1 -1 -1 -2 -1 -2 0 0 1 -2 -0 -0 -1 1 -2 -0 -1 -0 -1 -1 -2 -1 -2 -1 -1 -1 -2 -2 -3 -2 -1 -1 -2 -2 -1 -1 -4 -2
2 -5 0 2 -2 1 -3 1 -1 -2 0 -0 -1 -1 -2 -1 -0 1 0 -1 1 -1 -1 -1 -2 -1 -1 1 -3 -2 -1 -2 -0 0 -1 -1 -2 -0 -1 -2 -0 -1 -0 1 0 4 -5
-1 4 -3 2 0 -1 -1 -2 1 -1 -1 -2 -0 -1 -0 -2 -0 -0 -0 -1 -0 -1 -1 1 -1 -1 -1 -2 -2 -1 1 -0 -2 -2 -1 -2 -1 -1 0 -0 1 0 -0 -3 -3 -6 -2
-3 -1 0 -3 1 -1 1 1 -2 -0 -2 0 -1 0 -3 -2 -0 -1 -0 0 -2 -1 -1 -1 -1 -3 -4 -2 -2 -3 -3 -1 -1 -1 1 1 0 -1 -0 1 -3 -4 -4 -2 -1 1 -0
1 -1 2 -0 -1 -0 1 0 -2 -0 -2 1 -1 -1 -3 0 -0 1 -1 -0 2 2 -6 -2 -1 1 -2 -3 -1 -1 0 0 -0 -2 -2 -0 -1 -2 -3 -3 -0 -0 -0 -2 -0 -2 -1
0 -1 2 0 -1 0 -1 -1 -0 -1 -1 -1 -2 -1 0 -3 -0 -1 1 -2 -0 -1 -3 -1 -1 -3 -2 -1 -2 -1 -3 -1 -1 -1 -2 1 -1 0 1 -0 1 0 -3 -0 -1 2 -2
1 -2 0 0 1 1 -2 -0 1 -0 -1 -1 -1 -2 2 -2 -1 1 -2 0 -1 -1 -2 -2 -1 -1 -2 -1 -0 2 -4 -5 -6 -5 -2 1 0 -1 -1 -2 -1 3 -0 -5 -6 -4 -3
-1 -1 1 -0 1 -1 -1 -0 0 0 -2 -2 1 -3 -1 -1 -2 1 0 -0 -1 -1 0 -1 -2 -1 -1 -2 -2 -3 -3 -2 -1 -0 -3 -3 -2 -2 -4 -3 -3 -3 -3 -3 -1 -2 -5
-1 -1 0 -1 0 -2 1 -1 0 3 -2 -2 2 -3 -1 -2 -2 0 0 -2 -1 -1 -2 -0 0 -1 -1 -1 -1 -2 -1 -2 -2 -1 -8 -3 -3 -3 0 2 1 -0 -2 -2 2 2 -0
-2 -0 -2 0 1 -0 -0 -0 -2 3 -1 -1 -0 -1 -0 -6 -0 -2 -0 0 -3 -1 -1 -2 -0 -1 -2 -2 -2 -3 -1 -2 -4 -1 -3 -1 -6 1 -1 -0 -0 -1 -1 -1 0 -4 -3
1 1 1 -2 -0 0 -1 -4 0 3 -1 1 -2 0 -1 -4 1 -2 -1 0 -0 -2 -1 -3 -2 -1 -2 -3 -2 -3 -1 0 -1 -1 1 -1 -2 -3 0 -2 -3 0 -1 -1 -2 0 -2
0 -0 1 0 -0 2 -2 -3 4 -1 0 1 -1 2 -1 -1 -1 -2 -2 -1 0 -0 -0 -0 -3 -0 -1 -0 -1 -2 -2 -1 0 -1 -1 -2 -2 -5 -2 2 1 2 1 -1 0 -3 -1
2 -1 -1 2 1 -3 -1 2 0 1 -1 0 -1 1 -2 3 -2 -2 -1 -3 -1 0 -2 -0 -1 -1 -1 -2 -3 -1 -3 0 0 -2 2 -1 2 -5 -0 -1 -3 -7 1 3 4 6 -5
0 1 2 2 1 -1 -1 4 -2 3 -3 4 -0 1 -2 2 -1 -1 -1 -1 -1 -0 -0 -1 -1 -0 -1 -0 -2 -2 -2 -1 0 -0 2 3 0 -1 -3 5 5 -6 4 6 4 6 -3
1 1 -0 -3 -3 -1 3 -1 1 0 -2 5 -1 2 -3 0 -2 -1 -2 1 -2 -2 0 -0 -1 0 0 -1 -2 -3 0 1 -0 -1 1 4 -2 1 -11 4 -1 -7 2 7 1 6 1
1 0 -0 -0 -1 4 -2 2 1 1 -4 6 -0 3 0 -2 -0 -1 0 -2 -0 0 -2 -0 -2 0 1 -3 1 -2 -2 1 3 -1 1 -1 -2 0 -14 0 -2 -11 10 1 2 2 -4
-0 0 1 1 0 -5 4 1 1 2 -3 4 -1 3 2 -2 -2 0 1 0 -1 -0 -2 -2 -1 -2 -1 1 1 1 1 -1 0 -1 3 2 -0 1 -10 1 -4 -3 -2 -1 -2 -1 2
-1 0 1 -1 4 -1 1 -1 2 1 2 2 -1 -0 2 -4 -1 2 -2 -1 -2 -1 -2 -3 -1 -1 -0 -0 0 -1 0 -3 -1 3 3 0 5 5 -6 -2 -2 -2 -2 1 1 -1 2
-1 10 2 -3 -1 2 1 0 1 -1 2 1 -1 -0 3 -6 -0 3 2 2 0 1 1 -4 -3 -0 -2 -3 2 -4 -5 -6 -1 2 2 2 2 -0 -0 -1 -6 -10 -1 -4 1 -9 -0
0 -1 10 2 -3 -2 1 -0 -1 1 -1 -3 5 0 2 -2 -7 4 1 -1 -3 -0 0 -2 1 6 1 2 4 -0 -4 -1 2 -0 -1 1 2 0 2 0 -1 -2 1 1 1 -12 -2
15 -1 9 -2 -1 -0 -1 -1 -1 -2 -2 -1 2 1 1 -2 -9 4 -3 -4 11 -1 -5 -5 -1 -5 1 3 4 0 -5 -4 -4 -1 -2 -0 0 -4 4 -2 -9 -0 2 1 0 -4 2
-0 3 0 -2 4 -5 0 1 -1 2 -2 3 -4 3 8 -3 -3 -5 3 -3 4 -3 4 0 6 -8 1 5 1 -2 2 2 -0 -1 -2 -0 1 -1 3 -2 -11 -4 -1 4 2 -3 1
-3 4 -0 -0 1 -4 -4 1 -4 -3 2 4 -3 -2 7 3 -0 -7 -1 -6 1 5 5 2 3 5 6 -3 -1 4 -1 -1 -2 -3 -3 -6 -1 -1 -1 -9 -2 -1 2 -1 -2 1 -2
Height
3182 3182 3181 3180 3178 3177 3176 3174 3172 3169 3167 3165 3164 3162 3159 3157 3156 3155 3155 3154 3153 3152 3152 3151 3150 3150 3149 3149 3148 3148 3147 3147 3147 3146 3145 3144 3143 3142 3142 3141 3141 3140 3139 3139 3138 3137 3137
3183 3182 3183 3181 3181 3178 3178 3176 3174 3172 3170 3167 3165 3163 3161 3159 3157 3156 3155 3154 3154 3154 3153 3152 3152 3151 3150 3151 3150 3149 3149 3147 3146 3145 3145 3144 3143 3142 3141 3141 3141 3140 3139 3139 3138 3137 3137
3183 3184 3183 3183 3181 3181 3179 3178 3176 3174 3172 3169 3166 3164 3162 3160 3158 3156 3156 3155 3155 3155 3154 3154 3153 3152 3152 3152 3151 3150 3149 3147 3147 3146 3145 3144 3142 3142 3140 3140 3140 3139 3139 3139 3139 3139 3138
3184 3184 3184 3183 3182 3182 3181 3180 3178 3176 3173 3171 3168 3164 3162 3160 3159 3158 3156 3156 3156 3156 3155 3155 3155 3155 3153 3153 3152 3151 3150 3149 3148 3147 3145 3144 3142 3142 3141 3140 3140 3139 3139 3139 3139 3138 3136
3183 3184 3185 3184 3183 3182 3182 3181 3180 3177 3175 3172 3168 3164 3161 3159 3159 3158 3157 3157 3156 3156 3156 3156 3156 3156 3155 3154 3153 3151 3150 3150 3148 3147 3145 3144 3143 3142 3142 3140 3139 3138 3138 3138 3137 3135 3134
3183 3184 3184 3184 3184 3183 3182 3181 3180 3178 3176 3172 3168 3165 3162 3159 3158 3159 3158 3158 3158 3157 3157 3157 3157 3159 3157 3155 3153 3152 3150 3149 3148 3146 3146 3144 3143 3143 3142 3141 3140 3139 3137 3136 3134 3134 3131
3182 3183 3184 3184 3184 3184 3183 3181 3181 3179 3176 3174 3170 3166 3163 3160 3158 3159 3159 3159 3161 3160 3158 3157 3158 3157 3157 3156 3155 3153 3151 3149 3148 3147 3146 3145 3145 3142 3140 3140 3139 3138 3136 3133 3132 3129 3127
3181 3182 3183 3183 3184 3184 3183 3181 3180 3179 3177 3175 3171 3167 3164 3161 3160 3159 3159 3159 3159 3161 3159 3159 3158 3158 3157 3156 3155 3153 3152 3151 3148 3147 3146 3147 3144 3142 3141 3140 3139 3138 3135 3134 3131 3128 3123
3178 3180 3181 3182 3182 3184 3182 3182 3180 3179 3177 3175 3171 3168 3165 3162 3161 3160 3159 3159 3159 3159 3161 3161 3159 3159 3159 3158 3156 3154 3152 3150 3149 3148 3146 3145 3146 3143 3142 3140 3139 3137 3135 3133 3131 3125 3118
3177 3178 3178 3181 3180 3181 3182 3180 3180 3178 3177 3175 3172 3169 3166 3163 3163 3160 3159 3159 3159 3160 3161 3163 3160 3159 3159 3157 3157 3155 3153 3153 3150 3149 3147 3146 3146 3144 3143 3140 3138 3135 3133 3129 3124 3120 3118
3175 3176 3176 3178 3178 3179 3181 3177 3178 3178 3176 3174 3172 3169 3167 3163 3161 3160 3160 3158 3158 3161 3162 3164 3161 3160 3158 3159 3158 3156 3154 3152 3151 3149 3150 3148 3146 3144 3142 3139 3136 3134 3130 3126 3121 3119 3116
3172 3172 3173 3175 3175 3176 3178 3176 3175 3177 3176 3174 3172 3169 3166 3164 3162 3161 3159 3159 3160 3162 3159 3161 3160 3159 3159 3158 3157 3156 3154 3153 3151 3149 3148 3146 3145 3144 3141 3138 3135 3131 3126 3120 3117 3116 3116
3167 3169 3170 3172 3173 3173 3175 3174 3173 3174 3175 3173 3172 3169 3166 3164 3163 3160 3160 3160 3162 3159 3162 3161 3159 3159 3159 3158 3157 3155 3154 3153 3151 3149 3147 3145 3143 3142 3140 3138 3135 3131 3125 3120 3121 3119 3118
3163 3165 3166 3168 3170 3171 3171 3172 3170 3171 3172 3171 3170 3169 3166 3163 3162 3160 3160 3161 3160 3159 3158 3158 3158 3158 3158 3158 3156 3155 3153 3152 3151 3149 3147 3145 3142 3142 3140 3138 3135 3131 3131 3132 3134 3128 3116
3159 3160 3162 3164 3167 3168 3168 3169 3168 3168 3169 3169 3169 3168 3166 3163 3162 3160 3160 3159 3158 3158 3159 3159 3158 3157 3158 3157 3157 3154 3152 3151 3150 3148 3149 3144 3140 3138 3138 3136 3135 3131 3131 3131 3125 3119 3117
3155 3156 3158 3160 3162 3164 3166 3165 3165 3165 3166 3166 3166 3166 3165 3163 3161 3160 3159 3157 3157 3157 3157 3157 3158 3157 3156 3156 3156 3153 3151 3150 3149 3148 3146 3145 3140 3138 3137 3135 3133 3132 3132 3130 3128 3125 3117
3150 3152 3154 3156 3158 3159 3161 3162 3162 3163 3163 3163 3164 3163 3163 3162 3160 3159 3158 3156 3155 3156 3156 3157 3156 3156 3155 3154 3153 3151 3151 3150 3147 3147 3145 3142 3142 3138 3135 3132 3131 3130 3128 3128 3129 3126 3123
3145 3148 3150 3151 3152 3155 3156 3156 3158 3160 3160 3160 3161 3160 3160 3159 3161 3157 3156 3156 3156 3154 3154 3154 3154 3154 3153 3152 3150 3150 3149 3148 3146 3145 3142 3140 3137 3133 3132 3129 3128 3128 3127 3127 3127 3122 3119
3138 3142 3145 3146 3148 3150 3151 3152 3154 3156 3157 3157 3157 3157 3157 3156 3156 3156 3155 3155 3154 3153 3153 3153 3153 3152 3151 3150 3150 3148 3147 3146 3143 3141 3139 3137 3133 3131 3128 3129 3127 3126 3124 3122 3120 3117 3111
3131 3135 3137 3141 3144 3144 3146 3148 3149 3151 3152 3154 3155 3154 3153 3153 3153 3153 3152 3152 3151 3151 3151 3151 3151 3150 3148 3147 3146 3145 3144 3142 3140 3138 3136 3133 3130 3130 3128 3125 3124 3120 3117 3115 3115 3110 3103
3125 3129 3132 3135 3137 3139 3142 3144 3144 3147 3148 3150 3150 3149 3149 3150 3149 3149 3149 3149 3148 3149 3149 3148 3148 3147 3146 3145 3143 3142 3141 3139 3137 3134 3131 3128 3123 3122 3121 3117 3114 3110 3106 3106 3103 3102 3100
3118 3121 3124 3128 3130 3134 3136 3138 3140 3143 3143 3145 3146 3146 3145 3146 3146 3146 3145 3145 3146 3144 3146 3145 3145 3144 3143 3142 3141 3137 3136 3135 3133 3128 3126 3123 3118 3113 3109 3108 3105 3100 3098 3096 3094 3092 3085
3112 3115 3118 3122 3125 3128 3129 3132 3134 3137 3139 3139 3141 3141 3142 3142 3142 3143 3142 3141 3141 3141 3141 3141 3141 3140 3139 3138 3135 3133 3130 3128 3125 3123 3121 3118 3115 3112 3103 3101 3099 3091 3089 3089 3088 3085 3082
3105 3109 3113 3115 3119 3122 3125 3128 3129 3131 3134 3135 3137 3138 3137 3137 3138 3138 3138 3138 3137 3137 3137 3137 3136 3135 3135 3132 3129 3126 3123 3121 3118 3115 3113 3110 3110 3109 3099 3096 3095 3088 3086 3083 3081 3081 3077
3097 3101 3106 3109 3112 3116 3119 3122 3125 3127 3128 3130 3131 3132 3131 3130 3133 3133 3134 3133 3133 3133 3132 3133 3132 3130 3128 3126 3123 3118 3116 3114 3109 3107 3106 3105 3105 3106 3101 3092 3085 3080 3079 3079 3076 3073 3071
3087 3092 3096 3099 3103 3107 3111 3115 3118 3120 3122 3124 3125 3125 3125 3124 3126 3128 3128 3128 3127 3126 3125 3126 3125 3123 3122 3119 3117 3113 3111 3107 3104 3102 3101 3101 3100 3101 3097 3095 3087 3078 3076 3074 3071 3065 3063
3075 3082 3086 3089 3093 3097 3102 3107 3111 3113 3114 3116 3120 3120 3118 3115 3117 3120 3120 3121 3120 3120 3118 3117 3118 3117 3115 3112 3109 3107 3105 3103 3100 3097 3097 3097 3094 3093 3092 3090 3080 3075 3073 3071 3071 3070 3062
3064 3070 3074 3079 3083 3087 3092 3097 3102 3105 3107 3107 3110 3114 3111 3108 3108 3110 3111 3113 3112 3113 3111 3110 3111 3106 3107 3105 3104 3102 3098 3096 3094 3094 3094 3095 3092 3087 3085 3085 3076 3072 3070 3072 3066 3059 3056
3053 3058 3063 3068 3072 3076 3082 3087 3092 3095 3098 3099 3098 3104 3106 3102 3100 3100 3102 3103 3103 3102 3103 3101 3101 3098 3098 3097 3097 3095 3093 3091 3091 3090 3089 3088 3085 3082 3082 3077 3072 3068 3064 3061 3057 3053 3049